sat.trackr.live / text

‹ back to catalog

STARLINK-3570

NORAD 51882 · 2022-022AG

PAYLOAD ACTIVE UNKNOWN

§ Identity

Operator
Country
US
Launch date
2022-03-03
Launch site
AFETR
Launch vehicle
Mass (kg)
RCS (m²)

Purposes: comms

External: N2YO · Heavens-Above · Gunter

§ Orbital elements

Epoch: 2026-09-20T04:34:35.392224Z

Period
94.01 min
Inclination
53.1591°
Eccentricity
0.0001267
Mean motion
15.31707619 rev/d
Perigee alt
469.8 km
Apogee alt
471.6 km
Semi-major
6,848.9 km
B*
3.7719e-5
RAAN
191.2063°
Arg perigee
103.5545°
Mean anomaly
256.5598°
Rev number
25,286

§ Raw data

STARLINK-35701 51882U 22022AG  26263.19068741  .00000806  00000+0  37719-4 0  99912 51882  53.1591 191.2063 0001267 103.5545 256.5598 15.31707619252864

JSON: /api/v1/satellites/51882 · /tle

For live sub-satellite position, see the globe view (requires WebGL).

§ Visibility from observer

Set your observer location to see the next 7 days of passes ≥ 10°. The values pass through the URL so the page stays shareable.

No JS? Fill the form by hand. The geolocation button needs JavaScript.